Saturday, August 23, 2014
19:56 UTC
  |  Log In   |  Register Free
Airport Search:

Owosso Community Airport
(KRNP)

Owosso Community Airport Diagram
No Airport Diagram Available

FAA data valid effective July 24, 2014 until September 18, 2014 (unless otherwise noted).

 
 
 
 
 
 
 
 
 
 
 
 
 
 

Current Aviation Weather for Owosso Community Airport (KRNP)

The most recent METAR observation for KRNP was updated at: 1834 UTC
METAR Summary (Translated METAR)
KRNP
281834Z AUTO 32009KT 10SM SCT027 SCT046 OVC060 17/12 A2996 RMK AO2 T01700116
KFNT
(17.4 nm SE from KRNP)
281753Z 36007KT 10SM SCT027 BKN050 OVC060 18/11 A2995 RMK AO2 SLP138 T01830111 10194 20161 51011
TAF Summary (Translated TAF)
KFNT
(17.4 nm SE from KRNP)
231720Z 2318/2418 07006KT P6SM BKN025 FM232000 07006KT P6SM BKN035 FM232200 08005KT P6SM SCT035 FM241100 08004KT 2SM BR OVC003 FM241400 08005KT 5SM HZ BKN005 FM241600 10007KT P6SM SCT035
KLAN
(23.5 nm SW from KRNP)
231740Z 2318/2418 06008KT P6SM SCT035 SCT250 FM240900 08004KT P6SM FEW004 SCT120 FM241400 10007KT P6SM FEW040
  Airport Weather Conditions for KRNP

 Current Weather at RNP
75° F
Fair
North winds at 6.9 mph
RNP NOAA Radar

Pressure: 30.08 in
Humidity: 76%
Wind: North at 6.9 MPH (6 KT)
Dew Point: 67.1°F
Visibility: 10.00 mi


Airport Weather Forecast for KRNP

Translated METAR and TAF for KRNP
Translated METAR for KRNP (1950 UTC 23 August 2014)
found at http://aviationweather.gov/adds/metars/
 
METAR text: KRNP 231934Z AUTO 02004KT 10SM SCT023 24/19 A3007 RMK AO2 T02430194
Conditions at: KRNP (OWOSSO , MI, US) observed 1934 UTC 23 August 2014
Temperature: 24.3°C (76°F)
Dewpoint: 19.4°C (67°F) [RH = 74%]
Pressure (altimeter): 30.07 inches Hg (1018.4 mb)
Winds: from the NNE (20 degrees) at 5 MPH (4 knots; 2.1 m/s)
Visibility: 10 or more miles (16+ km)
Ceiling: at least 12,000 feet AGL
Clouds: scattered clouds at 2300 feet AGL
Weather: automated observation with no human augmentation;
there may or may not be significant weather present at this time
Translated TAF for KRNP

There is no translated TAF available for this airport

Find All Airport Services Find A Hotel Find A Rental Car Find A Golf Course Find A Restaurant $100 Hamburger



FBO's on the Field
FBO Company Facility Photos Services Transportation Aviation Fuel Prices: Prices include tax
Catering Weather Repair Courtesy Rental Type 100LL JetA JetA+ MOGAS 8087
 
Owosso Community Airport

This FBO has not yet been rated
FS:Avfuel
Last Updated: Aug-21
Login to update fuel prices
SS:
Contact Owosso Community AirportMore FBO Information
 
Add another FBO Facility Photos Catering Weather Repair Courtesy Rental Type 100LL JetA JetA+ MOGAS 8087
Services Transportation Aviation Fuel Prices: Prices include tax


GlobalAir.com Airport Resource Center model-print
model-print
model-print
model-print